EHI
0 0 0 0 0 0 0 0 0 1 1 2 3 7 16 22 24 25 26 24 20 19 18 14 8 5 4 3 3 3 2 1 1 0 0 0 0 0 0 0 0 0 0 0
0 0 0 0 0 0 0 0 0 0 1 2 4 9 17 22 23 23 23 21 18 16 16 13 8 5 4 3 3 3 2 1 1 1 0 0 0 0 0 0 0 0 0 0
0 0 0 0 0 0 0 0 0 1 3 4 5 10 18 22 21 20 19 18 16 15 15 12 8 6 5 4 3 3 2 1 1 1 0 0 0 0 0 0 0 0 0 0
0 0 0 0 0 0 0 0 1 2 4 4 5 10 17 20 20 19 18 17 17 16 15 12 8 6 5 4 3 3 2 1 0 0 0 0 0 0 0 0 0 0 0 0
0 0 0 0 0 0 0 0 1 3 4 3 4 7 12 17 19 18 17 18 18 16 13 10 7 6 4 3 3 3 1 0 0 0 0 0 0 1 1 1 0 0 0 1
0 0 0 0 0 0 0 0 1 3 3 3 3 5 11 17 19 18 18 19 18 14 11 8 7 6 4 3 3 2 1 0 0 0 0 0 1 2 2 2 1 0 0 1
0 0 0 0 1 1 1 1 3 4 4 5 6 10 15 19 20 19 19 18 15 12 9 7 6 5 4 3 3 2 1 0 0 0 0 1 2 3 3 3 2 1 1 1
0 0 0 0 1 2 2 3 5 6 6 7 12 15 17 19 20 20 18 15 12 10 7 5 5 4 3 3 3 1 0 0 0 0 0 1 2 2 2 2 2 1 1 1
0 0 0 0 1 2 3 4 5 6 6 9 14 16 16 17 19 18 14 11 9 7 5 3 2 2 3 3 2 1 0 0 0 0 0 0 1 1 1 1 1 0 0 0
0 0 0 0 1 2 2 2 2 3 4 7 12 15 16 16 16 15 11 9 8 6 4 2 1 1 1 2 2 1 0 0 0 0 0 0 0 0 0 0 0 0 0 0
0 0 0 0 0 1 1 1 0 1 1 5 9 13 14 14 14 13 11 9 8 6 3 1 0 0 0 1 1 1 0 0 0 0 0 0 0 0 0 0 0 0 0 0
0 0 0 0 0 0 0 0 0 0 0 3 8 11 12 13 13 12 9 9 9 6 2 0 0 0 0 0 0 0 0 0 0 0 0 0 0 0 0 0 0 0 0 0
1 0 0 0 0 0 0 0 0 0 1 4 8 10 11 11 11 8 7 7 7 5 2 0 0 1 1 1 0 0 0 0 0 0 0 0 0 0 0 0 0 0 0 0
1 0 0 0 0 0 0 1 1 0 1 4 7 9 8 8 6 4 3 5 6 5 2 0 0 1 2 2 1 0 0 0 0 0 0 0 0 0 0 0 0 0 0 0
1 0 0 0 0 0 0 1 1 0 1 3 6 6 5 4 2 1 1 4 6 5 3 1 2 2 3 3 1 0 0 0 0 0 0 0 0 0 0 0 0 0 0 0
0 0 0 0 0 0 0 0 0 0 1 3 4 4 3 2 1 1 1 2 4 5 4 4 5 4 4 3 2 0 0 0 0 0 0 0 0 0 0 0 0 0 0 0
0 0 0 0 0 0 0 0 0 0 1 2 3 2 2 2 2 2 1 1 2 5 6 6 6 6 4 3 1 0 0 0 0 0 0 0 0 0 0 0 0 0 0 0
0 0 0 0 0 0 0 0 0 0 1 1 1 1 1 1 2 3 2 1 1 4 6 6 6 6 5 3 1 0 0 0 0 0 0 0 0 0 0 0 0 0 0 0
0 0 0 0 0 0 0 0 0 0 0 1 1 1 0 1 2 3 2 1 1 3 5 6 5 6 6 4 1 0 0 0 0 0 0 0 0 0 0 0 0 0 0 0
0 0 0 0 0 0 0 0 0 0 0 1 2 2 1 1 2 3 2 1 0 1 3 4 5 5 6 4 1 0 0 0 0 0 0 0 0 0 0 0 0 0 0 0
0 0 0 0 0 0 0 0 0 0 0 1 2 2 1 1 2 3 3 1 0 0 1 2 3 4 4 3 1 0 0 0 0 0 0 0 0 0 0 0 0 0 0 0
0 0 0 0 0 0 0 0 0 0 0 0 1 1 3 3 2 3 3 1 0 0 0 0 1 1 2 1 0 0 0 0 0 0 0 0 0 0 0 0 0 0 0 0
0 0 0 0 0 0 1 1 0 0 0 0 0 1 4 4 2 2 3 1 0 0 0 0 0 0 0 0 0 0 0 0 0 0 0 0 0 0 0 0 0 0 0 0
1 0 1 2 1 1 2 2 1 0 0 0 0 1 3 3 1 1 2 1 0 0 0 0 0 0 0 0 0 0 0 0 0 0 0 0 0 0 0 0 0 0 0 0
3 1 1 3 3 2 2 2 1 0 0 0 0 0 1 1 0 1 2 1 0 0 0 0 0 0 0 0 0 0 0 0 0 0 0 0 0 0 0 0 0 0 0 0
4 2 2 4 3 1 1 1 0 0 0 0 0 0 0 0 0 1 1 1 0 0 0 0 0 0 0 0 0 0 0 0 0 0 0 0 0 0 0 0 0 0 0 0
4 3 3 3 1 0 0 0 0 0 0 0 0 0 0 0 1 1 1 0 0 0 0 0 0 0 0 0 0 0 0 0 0 0 0 0 0 0 0 0 0 0 0 0
Wind_Speed
12 11 13 14 13 11 10 9 9 7 4 3 1 3 5 6 7 8 8 7 8 7 6 5 5 4 4 3 2 2 2 2 2 2 1 0 1 1 0 0 1 1 1 2
13 12 13 14 12 10 10 9 8 6 4 2 2 3 6 7 7 7 7 7 7 8 7 6 6 5 4 4 3 3 2 2 2 3 2 1 1 1 1 1 2 2 2 2
12 11 12 13 10 10 8 7 7 6 2 2 3 2 3 6 7 7 7 7 7 7 7 6 6 5 4 4 4 3 3 2 3 3 3 2 1 2 1 1 1 2 2 2
11 11 13 8 7 6 5 5 4 3 2 1 3 3 2 4 7 6 6 7 7 6 7 6 6 5 4 4 3 3 3 3 3 3 3 2 2 1 1 1 1 2 2 2
9 10 10 9 7 6 5 4 2 1 2 3 4 4 4 4 6 6 6 6 6 6 6 6 6 5 5 4 3 3 3 2 3 3 2 2 2 1 0 1 1 2 2 2
10 11 10 7 6 6 5 4 2 2 1 1 2 2 3 5 6 7 6 6 6 6 7 6 6 5 5 4 3 3 3 2 2 2 2 2 2 2 1 1 2 2 2 2
11 10 8 7 6 5 5 1 3 2 1 1 2 2 5 6 6 7 7 7 7 7 6 6 6 5 5 4 3 3 2 2 2 1 1 1 2 1 2 2 2 2 2 2
8 9 7 3 4 3 2 2 2 2 3 5 6 7 6 7 7 8 8 8 8 7 6 6 6 5 5 3 2 2 2 2 2 1 1 1 1 1 2 2 3 3 3 3
5 4 3 3 2 1 2 2 2 3 4 6 6 6 6 6 7 8 8 8 7 7 7 6 6 5 5 3 3 3 2 2 2 2 1 1 2 2 2 3 3 3 2 2
5 4 4 4 3 3 2 1 1 2 4 6 5 6 6 5 6 7 7 7 7 7 7 6 6 5 4 4 4 3 3 2 2 2 2 2 2 2 2 2 2 2 2 2
6 6 5 3 3 3 2 2 2 3 3 5 6 6 6 5 5 6 7 6 6 6 6 6 6 5 5 5 4 3 3 2 2 3 3 2 2 2 2 2 1 2 2 3
7 6 6 5 4 3 2 2 1 2 2 4 5 6 7 6 5 6 7 7 6 6 6 6 6 6 5 5 4 4 3 3 3 3 3 3 3 3 4 5 5 5 5 5
7 6 6 5 4 3 3 3 2 3 3 4 5 5 5 5 5 5 7 7 7 7 6 6 6 6 6 5 4 4 3 3 3 3 3 3 3 3 3 5 8 9 9 9
7 5 4 4 4 4 4 3 2 4 4 5 5 6 5 5 5 6 7 7 7 7 6 6 6 6 6 6 5 4 4 4 4 3 3 3 3 4 4 4 3 4 8 12
9 8 6 5 5 5 4 3 4 4 5 6 6 6 6 6 5 6 6 7 7 7 7 7 6 6 6 6 5 5 4 4 4 4 4 4 4 4 4 4 3 3 3 5
9 8 7 7 6 6 6 6 6 6 6 7 6 6 6 6 5 5 6 6 7 7 6 6 5 5 5 5 5 4 5 6 6 5 5 5 4 4 3 3 3 3 3 2
9 9 8 7 7 7 6 5 5 6 7 7 7 6 6 6 5 6 6 6 6 5 5 5 5 6 6 5 5 5 5 5 7 6 5 5 4 3 3 4 4 3 3 3
10 10 8 7 7 7 6 6 6 7 8 8 8 7 7 6 6 6 6 5 5 5 5 5 5 5 6 6 5 5 4 4 5 5 5 4 4 3 4 4 5 4 4 4
11 10 9 9 8 7 7 6 6 6 8 8 8 7 6 6 7 7 6 6 6 6 6 6 7 6 6 6 6 5 5 5 4 4 4 4 5 4 4 4 4 4 4 4
8 8 9 9 7 6 5 5 6 6 7 8 8 7 6 6 7 7 7 6 5 4 5 6 7 6 6 5 6 6 6 6 5 4 4 4 4 3 4 4 4 3 3 4
7 8 9 9 7 7 6 6 6 7 7 8 8 8 7 7 8 7 7 6 6 5 6 7 6 6 5 4 6 6 6 5 4 4 3 3 3 3 3 4 4 3 3 4
5 6 8 7 7 6 5 4 5 7 8 8 9 8 8 7 8 8 7 5 5 6 5 6 6 5 4 4 5 6 5 4 3 3 2 2 2 3 3 3 3 3 3 3
4 5 7 7 7 6 6 5 6 6 7 8 8 8 7 6 6 6 6 5 6 7 6 4 5 6 5 5 5 5 4 4 4 3 2 2 2 3 2 3 3 3 4 3
3 3 4 5 6 6 6 6 6 6 7 7 7 8 7 6 6 6 5 7 7 8 5 5 7 7 6 5 5 4 3 3 3 3 3 3 2 2 2 3 3 3 3 4
4 5 5 5 6 5 6 5 6 6 7 6 8 8 7 6 6 5 5 8 9 9 6 6 9 9 7 6 5 4 3 2 2 3 3 3 3 3 3 3 4 4 4 4
4 5 5 5 4 4 6 7 7 7 7 7 7 7 7 6 7 6 6 9 10 8 6 6 7 7 6 5 4 3 2 2 2 3 2 2 3 3 3 3 5 4 4 4
6 5 5 6 7 8 7 7 7 7 7 7 7 7 7 6 6 6 7 7 8 7 6 6 6 6 5 4 3 2 2 2 2 2 2 1 2 2 3 4 3 3 4 4
Wind_Direction
279 269 271 276 284 291 291 292 293 299 275 261 209 167 149 145 145 142 144 147 147 146 148 152 153 148 144 145 154 155 160 163 159 154 139 155 142 101 146 268 304 354 354 351
285 281 281 279 279 282 278 280 288 293 300 51 85 119 136 141 148 151 156 157 155 155 156 162 161 158 158 160 165 164 173 178 161 152 158 166 129 108 69 24 4 6 1 359
283 284 288 278 280 280 290 314 313 307 328 104 106 94 141 155 161 162 166 157 157 161 161 161 163 162 167 162 164 172 180 185 167 163 163 154 130 91 61 26 360 349 337 343
275 278 270 277 291 300 302 303 321 347 63 77 103 104 126 149 155 154 156 156 160 159 155 157 158 159 162 167 171 170 179 187 172 170 161 152 133 111 89 5 329 318 310 315
269 268 265 270 283 290 289 294 340 39 75 83 101 116 135 134 142 146 149 147 146 150 152 153 155 159 163 166 168 175 184 185 179 172 157 157 140 136 167 262 292 292 284 280
257 267 270 277 288 285 285 266 42 66 95 119 153 204 144 135 141 140 138 140 145 150 150 152 156 160 164 167 173 185 184 186 169 161 164 162 149 171 211 265 269 273 286 273
252 259 264 284 301 291 272 24 43 51 100 125 112 78 118 136 140 136 138 144 149 150 150 153 156 160 165 170 178 184 182 174 154 152 163 167 166 189 222 250 268 272 278 267
259 256 260 309 314 317 36 70 84 92 90 90 100 107 124 129 138 144 147 151 154 152 150 152 157 163 167 169 169 172 172 167 153 156 213 181 178 223 241 252 261 262 253 245
291 277 314 338 340 342 79 83 92 107 114 113 119 126 128 132 144 150 150 147 150 152 150 153 160 164 166 164 167 171 169 162 165 184 203 211 208 229 241 246 255 264 265 253
282 282 307 318 344 358 16 42 79 94 127 132 136 135 131 137 149 150 148 146 151 159 159 158 163 167 167 167 170 175 175 178 189 199 207 221 244 250 256 272 269 280 290 298
286 284 288 298 318 316 9 28 96 101 123 140 147 143 140 141 153 156 152 153 158 164 164 164 166 167 171 170 173 179 176 187 212 220 214 213 225 257 270 290 297 285 302 312
267 266 283 275 269 286 307 297 233 146 135 142 144 145 147 153 160 162 157 157 162 166 169 168 168 168 170 174 176 182 190 200 220 229 218 214 216 229 238 241 244 241 244 255
273 269 269 270 278 282 258 253 202 158 160 152 141 140 149 157 161 168 165 165 167 171 170 167 170 172 174 177 180 187 205 210 231 232 231 226 227 232 240 239 241 247 248 246
273 274 261 263 276 276 265 235 184 156 159 152 144 147 158 166 170 175 173 169 166 169 170 173 179 180 176 179 184 197 215 220 239 246 246 249 246 244 246 248 238 238 236 235
253 258 245 229 237 234 235 207 193 179 168 154 152 156 165 174 180 177 168 164 164 174 177 181 183 179 180 184 184 201 223 231 231 248 251 256 260 260 259 260 262 263 256 226
246 249 240 225 224 225 212 205 200 186 170 158 158 160 168 175 179 172 165 168 171 177 177 179 182 181 188 186 191 208 221 230 236 248 254 255 256 261 266 269 272 276 279 266
235 233 227 219 227 221 213 211 201 184 168 163 161 161 168 169 169 172 176 175 171 171 172 176 183 186 188 193 208 225 225 223 221 237 249 257 262 269 275 277 278 279 277 274
234 234 227 220 220 212 215 218 207 190 171 167 161 168 173 172 174 172 173 169 169 172 177 183 186 194 197 206 216 241 240 231 220 230 241 247 254 259 266 273 276 277 282 277
226 224 221 221 219 208 210 211 189 179 167 163 166 172 177 178 175 173 174 178 185 188 181 177 177 199 208 212 221 237 248 248 232 226 233 235 242 251 259 267 276 280 284 287
216 215 221 219 210 209 210 194 171 170 165 165 169 174 181 182 175 175 181 195 195 190 171 169 181 204 218 209 214 236 245 251 249 235 231 240 247 254 264 274 280 282 288 289
211 208 210 207 197 201 203 182 172 172 167 171 175 181 184 183 180 180 191 198 180 179 175 172 192 206 215 204 210 241 249 250 252 246 237 244 253 261 272 281 286 289 290 295
217 208 199 190 186 189 181 174 176 176 172 176 180 184 185 185 188 187 193 197 179 165 187 195 193 188 202 220 230 243 251 257 261 261 259 263 273 273 280 291 295 302 306 311
230 207 192 181 175 169 173 184 183 179 178 183 184 184 189 191 193 192 189 186 180 172 195 200 170 165 189 228 236 238 247 259 272 276 276 264 269 275 277 287 296 306 309 312
238 194 181 177 169 173 179 183 177 175 179 190 189 183 187 193 196 196 182 168 167 171 191 169 166 175 198 229 236 235 236 250 264 271 279 285 294 300 307 308 308 307 310 316
217 196 186 176 179 181 177 181 180 182 191 195 188 185 196 196 192 186 175 162 163 177 189 177 183 191 213 235 232 229 233 244 271 297 304 314 318 320 319 315 318 322 324 322
214 202 188 196 197 190 190 192 189 187 191 191 188 186 191 189 186 179 170 171 174 190 200 181 182 196 221 226 227 232 238 232 234 258 286 299 307 314 322 324 319 318 317 322
209 195 191 200 196 195 197 197 195 192 189 189 189 184 188 188 178 174 174 173 178 190 201 192 189 193 208 219 228 239 246 253 265 279 300 319 322 320 323 323 323 329 329 332